[Date Prev][Date Next][Thread Prev][Thread Next] - [Date Index][Thread Index][Author Index]

2 Line ISS Keps 3-28



ISS
1 25544U 98067A   02087.20558287  .00043083  00000-0  54733-3 0  2361
2 25544  51.6364  99.8501 0003791 334.4335 119.0448 15.58951540191409


----
Via the sarex mailing list at AMSAT.ORG courtesy of AMSAT-NA.
To unsubscribe, send "unsubscribe sarex" to Majordomo@amsat.org



AMSAT Top AMSAT Home